Back to catalog

IRIDIUM 33 DEB

AlivePO
NORAD 35680·DEBRIS·🇺🇸 United States

Launched Sep 14, 1997 from Baikonur Cosmodrome

Loading…

Next Passes (next 24 hours)

TLE

AgingSource: Space-Track

Epoch: Sep 9, 2026, 18:39 UTC

1 35680U 97051RJ  26252.77748933  .00001947  00000-0  75668-3 0  9995
2 35680  86.0968 261.2128 0148973 135.1619 350.4399 14.23454613645541

Track IRIDIUM 33 DEB in real time with AllMySat

Download on the App Store